Find OneWeb SL0468

NORAD ID: 51652 Int'l Des: 2022-012 Owner: ONEWEBN Country: UK Constellation: oneweb operational
LEOCIRCULARPOLARONEWEB_TYPE

Live Position

Loading 3D Globe...

About OneWeb SL0468

Description loading...

Upcoming Passes

Passes for default location (London). Set your location on the main map for personalized predictions.

Altitude History

Loading altitude history...

Two-Line Element Set

1 51652U 22012AG 26106.26633843 -.00000097 00000-0 -31337-3 0 9994
2 51652 87.8842 48.5963 0002265 82.4037 277.7348 13.10377129201197
Epoch: Apr 16, 2026 • Age: 12 hours

Current Status

Altitude 1252.2 km
Velocity 7.23 km/s
Sub-Earth Point -87.85°S, 179.97°W
Launch Date Feb 10, 2022
Age 4.1 years
Type internet

Technical Details

Classification Payload
Mass 148.00 kg
Dry Mass 140.00 kg
Total Mass 148.00 kg
Length 1.30 m
Diameter 1.00 m
Span 5.00 m
Shape Trapezoid+2 pan
Manufacturer ONEWUS
Bus Type ARROW
Phase Status In Orbit
Owner/State ONEWEBN/UK

Most Searched